Weather History for Naples, FL

Change the Weather History Date:

Friday, November 29, 2013

  Actual Average Record
Temperature  
Mean Temperature 68 °F 69 °F  
Max Temperature 79 °F 79 °F 89 °F (1990)
Min Temperature 56 °F 60 °F 41 °F (1966)
Degree Days  
Heating Degree Days 0 1  
Month to date heating degree days 7 10  
Since 1 July heating degree days 7 11  
Cooling Degree Days 3 5  
Month to date cooling degree days 297 218  
Year to date cooling degree days 3938 3813  
Growing Degree Days 16 (Base 50)    
Moisture  
Dew Point 57 °F    
Average Humidity 72    
Maximum Humidity 93    
Minimum Humidity 50    
Precipitation  
Precipitation 0.00 in 0.06 in 1.05 in (2005)
Month to date precipitation 0.78 1.97  
Year to date precipitation 49.00 50.37  
Snow  
Snow 0.00 in - - ()
Month to date snowfall 0.0  
Since 1 July snowfall 0.0  
Since 1 September snowfall 0.0  
Snow Depth 0.00 in    
Sea Level Pressure  
Sea Level Pressure 30.23 in    
Wind  
Wind Speed 13 mph (NE)    
Max Wind Speed 22 mph    
Max Gust Speed 28 mph    
Visibility 10 miles    
Events      
T = Trace of Precipitation, MM = Missing Value Source: NWS Daily Summary

Daily Weather History Graph

Daily Weather History Graph

Search for Another Location

Airport:

Trip Planner

Search our weather history database for the weather conditions in past years. The results will help you decide how hot, cold, wet, or windy it might be!

Date:

Astronomy

Nov. 29, 2013 Rise Set
Actual Time 6:56 AM EST 5:34 PM EST
Civil Twilight 6:31 AM EST 5:59 PM EST
Nautical Twilight 6:02 AM EST 6:28 PM EST
Astronomical Twilight 5:34 AM EST 6:56 PM EST
Moon 3:18 AM EST 3:02 PM EST
Length of Visible Light 11h 28m
Length of Day
10h 38m
Waning Crescent, 14% of the Moon is Illuminated
Nov 29
Waning Crescent
Dec 2
New
Dec 9
First Quarter
Dec 17
Full
Dec 25
Last Quarter

Hourly Weather History & Observations

Time (EST) Temp. Dew Point Humidity Pressure Visibility Wind Dir Wind Speed Gust Speed Precip Events Conditions
12:53 AM 57.9 °F 54.0 °F 87% 30.23 in 10.0 mi NNE 11.5 mph - N/A   Clear
1:53 AM 57.0 °F 54.0 °F 89% 30.23 in 10.0 mi NE 13.8 mph 20.7 mph N/A   Clear
2:53 AM 57.0 °F 54.0 °F 89% 30.23 in 10.0 mi NNE 8.1 mph - N/A   Scattered Clouds
3:53 AM 55.9 °F 53.1 °F 90% 30.22 in 10.0 mi NNE 10.4 mph - N/A   Clear
4:53 AM 55.9 °F 53.1 °F 90% 30.22 in 10.0 mi NNE 9.2 mph - N/A   Clear
5:53 AM 55.9 °F 53.1 °F 90% 30.24 in 10.0 mi NNE 9.2 mph - N/A   Clear
6:53 AM 55.9 °F 53.1 °F 90% 30.26 in 10.0 mi NNE 8.1 mph - N/A   Clear
7:53 AM 57.9 °F 53.1 °F 84% 30.27 in 10.0 mi NNE 9.2 mph - N/A   Clear
8:53 AM 63.0 °F 54.0 °F 72% 30.28 in 10.0 mi NNE 11.5 mph - N/A   Clear
9:53 AM 69.1 °F 57.0 °F 65% 30.27 in 10.0 mi NE 12.7 mph - N/A   Clear
10:53 AM 73.9 °F 59.0 °F 59% 30.26 in 10.0 mi NE 12.7 mph - N/A   Clear
11:53 AM 75.9 °F 57.9 °F 54% 30.23 in 10.0 mi NE 19.6 mph 25.3 mph N/A   Clear
12:53 PM 77.0 °F 57.9 °F 52% 30.20 in 10.0 mi NE 20.7 mph 25.3 mph N/A   Clear
1:53 PM 77.0 °F 60.1 °F 56% 30.18 in 10.0 mi NE 17.3 mph - N/A   Partly Cloudy
2:53 PM 77.0 °F 59.0 °F 54% 30.18 in 10.0 mi NE 17.3 mph 24.2 mph N/A   Scattered Clouds
3:53 PM 75.9 °F 57.9 °F 54% 30.18 in 10.0 mi NE 17.3 mph 25.3 mph N/A   Scattered Clouds
4:53 PM 73.9 °F 57.0 °F 55% 30.18 in 10.0 mi NE 16.1 mph 20.7 mph N/A   Mostly Cloudy
5:53 PM 72.0 °F 57.9 °F 61% 30.20 in 10.0 mi NE 10.4 mph 20.7 mph N/A   Mostly Cloudy
6:53 PM 71.1 °F 59.0 °F 66% 30.22 in 10.0 mi NE 13.8 mph 21.9 mph N/A   Partly Cloudy
7:53 PM 69.1 °F 59.0 °F 70% 30.22 in 10.0 mi NE 13.8 mph - N/A   Scattered Clouds
8:53 PM 66.9 °F 59.0 °F 76% 30.24 in 10.0 mi NE 9.2 mph - N/A   Clear
9:53 PM 64.9 °F 59.0 °F 81% 30.25 in 10.0 mi NNE 10.4 mph 19.6 mph N/A   Clear
10:53 PM 63.0 °F 57.9 °F 84% 30.25 in 10.0 mi NNE 9.2 mph - N/A   Clear
11:53 PM 62.1 °F 57.9 °F 86% 30.23 in 10.0 mi NE 13.8 mph 18.4 mph N/A   Clear